Погода в Крестовоздвиженке

Россия / Амурская область     49°46′27″N   127°58′10″E
темп.,
°C
ветер,
м/с
пор.,
м/с
влажн.,
%
обл.,
%
осадки,
мм/ч
давл.,
гПа
погр.,
м
18 января, вт
вт1800:00−27сз2410084 0.0 103141
03:00−30сз2210083 0.0 103227
06:00−31зсз2210064 0.0 103311
09:00−32сз221006 0.0 103513
12:00−22сз24895 0.0 1034172
15:00−20ссз12925 0.0 1034102
18:00−27сз111005 0.0 10359
21:00−30сз2210032 0.0 103611
19 января, ср
ср1900:00−31сз2210048 0.0 103615
03:00−32сз2210019 0.0 103614
06:00−34сз221006 0.0 10369
09:00−33зсз11996 0.0 10369
12:00−22сз22842 0.0 1035125
15:00−20з11873 0.0 103323
18:00−27вюв11935 0.0 10339
21:00−30ю00965 0.0 10339
20 января, чт
чт2000:00−32сз111006 0.0 10349
03:00−34сз1110046 0.0 10359
06:00
09:00−35сз1110017 0.0 10379
12:00−24сз22915 0.0 1037140
15:00
18:00−29ююв00975 0.0 10389
21:00−31ю111005 0.0 10389
21 января, пт
пт2100:00−32ююв111006 0.0 10399
03:00−33юв1110035 0.0 10399
06:00−33юв1110038 0.0 10399
09:00−33юв1110027 0.0 10399
12:00−22юв118899 0.0 103778
15:00−18вюв118293 0.0 103584
18:00−23в229399 0.0 10359
21:00−25в119595 0.0 10359
22 января, сб
сб2200:00−28ссв009753 0.0 10359
03:00−31ссз0010019 0.0 10359
06:00−33сз0110052 0.0 10359
09:00−34сз1110063 0.0 10359
12:00−23сз119498 0.0 103492
15:00−19ссз1189100 0.0 1033143
18:00−23зсз119748 0.0 10339
21:00−28зсз111007 0.0 10349